BEIDOU-2 G8

Last updated on Wed Jul 16 2025 00:02:49 GMT+0000 (Coordinated Universal Time)

1 44231U 19027A 25196.60140455 -.00000240 00000+0 00000+0 0 9996 2 44231 1.7598 75.2153 0003647 252.6724 326.8489 1.00272574 22706
UTC large
Height (km)
Speed (km/s)
/
Latitude / Longitude
Inclination (degrees)
Orbital Period (minutes)
Azimuth
Elevation
Range (km)
Doppler Factor

Next 0 passes for location: London (51.5072 / 0.1276)

Sorry there are no passes over London.